HORS 3 (RS81S)

Last updated on Sun Aug 09 2026 00:03:16 GMT+0000 (Coordinated Universal Time)

1 61753U 24199U 26220.60384282 .00026308 00000+0 34292-3 0 9993 2 61753 97.2893 97.6059 0008219 90.8443 269.3755 15.58661293145717
UTC large
Height (km)
Speed (km/s)
/
Latitude / Longitude
Inclination (degrees)
Orbital Period (minutes)
Azimuth
Elevation
Range (km)
Doppler Factor

Next 0 passes for location: London (51.5072 / 0.1276)

No passes found over London.
HORS 3 (RS81S)